Change the Weather History Date:

Tuesday, July 9, 2013

  Actual Average (KCLT) Record (KCLT)
Temperature  
Mean Temperature 80 °F 79 °F  
Max Temperature 89 °F 89 °F 101 °F (1986)
Min Temperature 71 °F 68 °F 57 °F (1891)
Degree Days  
Heating Degree Days 0 0  
Month to date heating degree days 0  
Since 1 June heating degree days 3  
Since 1 July heating degree days 0  
Cooling Degree Days 15 14  
Month to date cooling degree days 119  
Year to date cooling degree days 593  
Since 1 June cooling degree days 430  
Growing Degree Days 30 (Base 50)    
Moisture  
Dew Point 71 °F    
Average Humidity 85    
Maximum Humidity 100    
Minimum Humidity 49    
Precipitation  
Precipitation 0.09 in 0.12 in 3.71 in (1901)
Month to date precipitation 0.95  
Year to date precipitation 21.65  
Snow  
Snow 0.00 in 0.00 in 0.00 in ()
Month to date snowfall 0.0  
Since 1 June snowfall 0.0  
Since 1 July snowfall 0.0  
Snow Depth -    
Sea Level Pressure  
Sea Level Pressure 30.18 in    
Wind  
Wind Speed 1 mph (SW)    
Max Wind Speed 10 mph    
Max Gust Speed -    
Visibility 8 miles    
Events Rain , Thunderstorm    
T = Trace of Precipitation, MM = Missing Value Source: NWS Daily Summary

Daily Weather History Graph

Daily Weather History Graph

Search for Another Location

Airport or City:

Trip Planner

Search our weather history database for the weather conditions in past years. The results will help you decide how hot, cold, wet, or windy it might be!

Date:

Astronomy

Jul. 09, 2013 Rise Set
Actual Time 6:15 AM EDT 8:40 PM EDT
Civil Twilight 5:46 AM EDT 9:09 PM EDT
Nautical Twilight 5:09 AM EDT 9:46 PM EDT
Astronomical Twilight 4:29 AM EDT 10:25 PM EDT
Moon 7:33 AM EDT (7/9) 9:22 PM EDT (7/9)
Length of Visible Light 15h 23m
Length of Day
14h 24m
New Moon, 2% of the Moon is Illuminated
Jul 9
New Moon
Jul 15
First Quarter
Jul 22
Full
Jul 29
Last Quarter
Aug 6
New

Hourly Weather History & Observations

Time (EDT) Temp. Heat Index Dew Point Humidity Pressure Visibility Wind Dir Wind Speed Gust Speed Precip Events Conditions
12:15 AM 73.4 °F - 71.6 °F 94% 30.21 in 10.0 mi SSE 3.5 mph - N/A   Clear
12:35 AM 75.2 °F - 71.6 °F 89% 30.21 in 10.0 mi Calm Calm - N/A   Clear
12:55 AM 73.4 °F - 71.6 °F 94% 30.21 in 10.0 mi Calm Calm - N/A   Scattered Clouds
1:15 AM 73.4 °F - 71.6 °F 94% 30.21 in 10.0 mi Calm Calm - N/A   Mostly Cloudy
1:35 AM 75.2 °F - 71.6 °F 89% 30.22 in 10.0 mi Calm Calm - N/A   Mostly Cloudy
1:55 AM 73.4 °F - 71.6 °F 94% 30.22 in 10.0 mi Calm Calm - N/A   Scattered Clouds
2:15 AM 73.4 °F - 71.6 °F 94% 30.20 in 10.0 mi Calm Calm - N/A   Clear
2:35 AM 73.4 °F - 71.6 °F 94% 30.19 in 7.0 mi Calm Calm - N/A   Clear
2:55 AM 73.4 °F - 71.6 °F 94% 30.19 in 10.0 mi Calm Calm - N/A   Clear
3:15 AM 73.4 °F - 71.6 °F 94% 30.19 in 10.0 mi SSW 3.5 mph - N/A   Clear
3:35 AM 73.4 °F - 71.6 °F 94% 30.19 in 10.0 mi Calm Calm - N/A   Clear
3:55 AM 73.4 °F - 71.6 °F 94% 30.19 in 10.0 mi Calm Calm - N/A   Clear
4:15 AM 71.6 °F - 69.8 °F 94% 30.19 in 5.0 mi Calm Calm - N/A   Clear
4:35 AM 71.6 °F - 69.8 °F 94% 30.19 in 5.0 mi Calm Calm - N/A   Clear
4:55 AM 71.6 °F - 69.8 °F 94% 30.19 in 4.0 mi Calm Calm - N/A   Clear
5:15 AM 71.6 °F - 69.8 °F 94% 30.19 in 5.0 mi Calm Calm - N/A   Scattered Clouds
5:35 AM 71.6 °F - 71.6 °F 100% 30.19 in 7.0 mi Calm Calm - N/A   Clear
5:55 AM 71.6 °F - 71.6 °F 100% 30.19 in 7.0 mi Calm Calm - N/A   Clear
6:15 AM 73.4 °F - 71.6 °F 94% 30.19 in 7.0 mi Calm Calm - N/A   Clear
6:35 AM 71.6 °F - 69.8 °F 94% 30.19 in 5.0 mi Calm Calm - N/A   Clear
6:55 AM 71.6 °F - 69.8 °F 94% 30.19 in 3.0 mi Calm Calm - N/A   Clear
7:15 AM 71.6 °F - 69.8 °F 94% 30.19 in 5.0 mi Calm Calm - N/A   Clear
7:35 AM 73.4 °F - 71.6 °F 94% 30.20 in 5.0 mi Calm Calm - N/A   Scattered Clouds
7:55 AM 73.4 °F - 73.4 °F 100% 30.20 in 7.0 mi Calm Calm - N/A   Scattered Clouds
8:55 AM 78.8 °F - 73.4 °F 83% 30.20 in 10.0 mi Calm Calm - N/A   Scattered Clouds
9:55 AM 80.6 °F 84.6 °F 71.6 °F 74% 30.22 in 10.0 mi SSW 5.8 mph - N/A   Mostly Cloudy
10:55 AM 80.6 °F 84.6 °F 71.6 °F 74% 30.22 in 10.0 mi SW 5.8 mph - N/A   Mostly Cloudy
11:55 AM 82.4 °F 87.2 °F 71.6 °F 70% 30.22 in 10.0 mi Calm Calm - N/A   Mostly Cloudy
12:55 PM 84.2 °F 89.6 °F 71.6 °F 66% 30.21 in 10.0 mi Calm Calm - N/A   Mostly Cloudy
1:55 PM 84.2 °F 89.6 °F 71.6 °F 66% 30.19 in 10.0 mi WSW 10.4 mph - N/A   Mostly Cloudy
2:55 PM 87.8 °F 92.6 °F 69.8 °F 55% 30.17 in 10.0 mi SW 4.6 mph - N/A   Mostly Cloudy
3:55 PM 87.8 °F 92.6 °F 69.8 °F 55% 30.14 in 10.0 mi SW 4.6 mph - N/A   Scattered Clouds
4:55 PM 86.0 °F 91.8 °F 71.6 °F 62% 30.12 in 10.0 mi Calm Calm - N/A   Scattered Clouds
5:55 PM 89.6 °F 93.4 °F 68.0 °F 49% 30.11 in 10.0 mi Calm Calm - N/A   Scattered Clouds
6:55 PM 87.8 °F 92.6 °F 69.8 °F 55% 30.11 in 10.0 mi Calm Calm - N/A   Scattered Clouds
7:55 PM 84.2 °F 89.6 °F 71.6 °F 66% 30.13 in 10.0 mi Calm Calm - N/A   Scattered Clouds
8:50 PM 80.6 °F 85.4 °F 73.4 °F 79% 30.14 in 7.0 mi North 4.6 mph - N/A Rain , Thunderstorm Thunderstorms and Rain
9:15 PM 77.0 °F - 73.4 °F 89% 30.15 in 3.0 mi ESE 3.5 mph - 0.06 in Rain , Thunderstorm Rain
9:35 PM 77.0 °F - 73.4 °F 89% 30.16 in 10.0 mi SSE 3.5 mph - 0.09 in Rain , Thunderstorm Light Thunderstorms and Rain
9:55 PM 77.0 °F - 73.4 °F 89% 30.16 in 10.0 mi West 3.5 mph - 0.09 in Rain , Thunderstorm Rain
10:15 PM 77.0 °F - 73.4 °F 89% 30.17 in 10.0 mi West 3.5 mph - N/A   Drizzle
10:35 PM 77.0 °F - 73.4 °F 89% 30.17 in 10.0 mi Calm Calm - N/A   Clear
10:55 PM 77.0 °F - 73.4 °F 89% 30.17 in 7.0 mi Calm Calm - N/A   Clear
11:15 PM 75.2 °F - 71.6 °F 89% 30.18 in 10.0 mi SSW 4.6 mph - N/A   Scattered Clouds
11:35 PM 77.0 °F - 71.6 °F 83% 30.18 in 10.0 mi SW 6.9 mph - N/A   Clear
11:55 PM 75.2 °F - 71.6 °F 89% 30.17 in 10.0 mi Calm Calm - N/A   Light Drizzle